Marshall, MN

5:34 PM CDT on August 31, 2016 (GMT -0500)
Marshall Municipal-Ryan

Weather History for KMML - February, 2013

Change the Weather History Date:

Thursday, February 14, 2013

  Actual Average Record
Temperature  
Mean Temperature 18 °F -  
Max Temperature 30 °F 25 °F 51 °F (1999)
Min Temperature 3 °F 7 °F -13 °F (2007)
Degree Days  
Heating Degree Days 48    
Moisture  
Dew Point 15 °F    
Average Humidity 77    
Maximum Humidity 86    
Minimum Humidity 67    
Precipitation  
Precipitation 0.00 in - - ()
Sea Level Pressure  
Sea Level Pressure 29.98 in    
Wind  
Wind Speed 18 mph (NW)    
Max Wind Speed 26 mph    
Max Gust Speed 31 mph    
Visibility 8 miles    
Events      
Averages and records for this station are not official NWS values.
T = Trace of Precipitation, MM = Missing Value Source: NWS Daily Summary

Daily Weather History Graph

Daily Weather History Graph

Search for Another Location

Airport or City:

Trip Planner

Search our weather history database for the weather conditions in past years. The results will help you decide how hot, cold, wet, or windy it might be!

Date:

Astronomy

Feb. 14, 2013 Rise Set
Actual Time 7:24 AM CST 5:51 PM CST
Civil Twilight 6:54 AM CST 6:21 PM CST
Nautical Twilight 6:20 AM CST 6:55 PM CST
Astronomical Twilight 5:46 AM CST 7:29 PM CST
Moon 9:13 AM CST (2/14) 11:09 PM CST (2/14)
Length of Visible Light 11h 26m
Length of Day
10h 27m
Waxing Crescent, 22% of the Moon is Illuminated
Feb 14
Waxing Crescent
Feb 17
First Quarter
Feb 25
Full
Mar 4
Last Quarter
Mar 11
New

Hourly Weather History & Observations

Time (CST) Temp. Windchill Dew Point Humidity Pressure Visibility Wind Dir Wind Speed Gust Speed Precip Events Conditions
12:15 AM 30.2 °F 16.8 °F 24.8 °F 80% 29.69 in 6.0 mi NNW 23.0 mph 26.5 mph N/A   Overcast
12:35 AM 30.2 °F 16.8 °F 24.8 °F 80% 29.70 in 10.0 mi NW 23.0 mph 29.9 mph N/A   Overcast
12:55 AM 28.4 °F 15.1 °F 24.8 °F 86% 29.71 in 10.0 mi NW 20.7 mph 27.6 mph N/A   Overcast
1:15 AM 28.4 °F 13.8 °F 24.8 °F 86% 29.72 in 10.0 mi NW 25.3 mph 31.1 mph N/A   Overcast
1:35 AM 28.4 °F 14.7 °F 24.8 °F 86% 29.74 in 10.0 mi NW 21.9 mph - N/A   Overcast
1:55 AM 28.4 °F 16.2 °F 23.0 °F 80% 29.74 in 10.0 mi NW 17.3 mph - N/A   Overcast
2:15 AM 28.4 °F 16.6 °F 24.8 °F 86% 29.75 in 10.0 mi NW 16.1 mph - N/A   Overcast
2:35 AM 28.4 °F 16.6 °F 24.8 °F 86% 29.75 in 10.0 mi NW 16.1 mph - N/A   Overcast
2:55 AM 28.4 °F 15.1 °F 23.0 °F 80% 29.77 in 10.0 mi NW 20.7 mph - N/A   Overcast
3:15 AM 28.4 °F 15.8 °F 23.0 °F 80% 29.77 in 10.0 mi NW 18.4 mph 25.3 mph N/A   Overcast
3:35 AM 28.4 °F 15.8 °F 23.0 °F 80% 29.78 in 10.0 mi NW 18.4 mph - N/A   Overcast
3:55 AM 28.4 °F 16.6 °F 23.0 °F 80% 29.78 in 10.0 mi NW 16.1 mph - N/A   Overcast
4:15 AM 28.4 °F 15.8 °F 23.0 °F 80% 29.80 in 10.0 mi NW 18.4 mph - N/A   Overcast
4:35 AM 28.4 °F 16.6 °F 23.0 °F 80% 29.80 in 10.0 mi NW 16.1 mph - N/A   Mostly Cloudy
4:55 AM 28.4 °F 17.5 °F 21.2 °F 74% 29.81 in 10.0 mi NW 13.8 mph - N/A   Mostly Cloudy
5:15 AM 28.4 °F 18.5 °F 23.0 °F 80% 29.81 in 10.0 mi NW 11.5 mph - N/A   Mostly Cloudy
5:35 AM 28.4 °F 19.1 °F 23.0 °F 80% 29.81 in 10.0 mi NNW 10.4 mph - N/A   Overcast
5:55 AM 26.6 °F 16.2 °F 21.2 °F 80% 29.81 in 10.0 mi WNW 11.5 mph - N/A   Overcast
6:15 AM 26.6 °F 16.8 °F 23.0 °F 86% 29.82 in 10.0 mi WNW 10.4 mph - N/A   Overcast
6:35 AM 26.6 °F 17.5 °F 23.0 °F 86% 29.82 in 10.0 mi NNW 9.2 mph - N/A   Overcast
6:55 AM 28.4 °F 19.7 °F 21.2 °F 74% 29.83 in 10.0 mi NW 9.2 mph - N/A   Overcast
7:15 AM 26.6 °F 16.8 °F 21.2 °F 80% 29.83 in 8.0 mi NW 10.4 mph - N/A   Overcast
7:35 AM 26.6 °F 19.1 °F 21.2 °F 80% 29.83 in 7.0 mi NNW 6.9 mph - N/A   Overcast
7:55 AM 26.6 °F 19.1 °F 21.2 °F 80% 29.84 in 2.5 mi NW 6.9 mph - N/A   Overcast
8:15 AM 26.6 °F 17.5 °F 23.0 °F 86% 29.85 in 2.0 mi NW 9.2 mph - N/A   Overcast
8:35 AM 26.6 °F 17.5 °F 21.2 °F 80% 29.86 in 1.5 mi NW 9.2 mph - N/A   Overcast
8:55 AM 26.6 °F 16.8 °F 21.2 °F 80% 29.87 in 1.2 mi NNW 10.4 mph - N/A   Overcast
9:15 AM 26.6 °F 16.2 °F 21.2 °F 80% 29.88 in 0.8 mi NNW 11.5 mph - N/A   Overcast
9:35 AM 26.6 °F 14.7 °F 21.2 °F 80% 29.89 in 1.0 mi NNW 15.0 mph - N/A   Overcast
9:55 AM 24.8 °F 11.1 °F 19.4 °F 80% 29.89 in 2.0 mi NNW 18.4 mph - N/A   Overcast
10:15 AM 24.8 °F 12.9 °F 19.4 °F 80% 29.90 in 2.5 mi NNW 13.8 mph - N/A   Mostly Cloudy
10:35 AM 24.8 °F 12.4 °F 19.4 °F 80% 29.91 in 2.0 mi NNW 15.0 mph - N/A   Overcast
10:55 AM 24.8 °F 12.9 °F 17.6 °F 74% 29.92 in 2.0 mi NNW 13.8 mph - N/A   Overcast
11:15 AM 24.8 °F 13.4 °F 19.4 °F 80% 29.93 in 1.2 mi NNW 12.7 mph - N/A   Overcast
11:35 AM 26.6 °F 13.8 °F 19.4 °F 74% 29.94 in 10.0 mi NNW 17.3 mph - N/A   Mostly Cloudy
11:55 AM 24.8 °F 10.3 °F 17.6 °F 74% 29.95 in 10.0 mi NNW 20.7 mph 24.2 mph N/A   Scattered Clouds
12:15 PM 24.8 °F 9.6 °F 15.8 °F 69% 29.96 in 5.0 mi NNW 23.0 mph 26.5 mph N/A   Mostly Cloudy
12:35 PM 24.8 °F 11.1 °F 17.6 °F 74% 29.96 in 9.0 mi NNW 18.4 mph - N/A   Overcast
12:55 PM 23.0 °F 7.6 °F 15.8 °F 74% 29.97 in 5.0 mi NNW 21.9 mph - N/A   Scattered Clouds
1:15 PM 21.2 °F 5.6 °F 15.8 °F 80% 29.99 in 9.0 mi NNW 20.7 mph - N/A   Partly Cloudy
1:35 PM 23.0 °F 8.3 °F 15.8 °F 74% 30.00 in 9.0 mi NNW 19.6 mph - N/A   Partly Cloudy
1:55 PM 21.2 °F 4.5 °F 14.0 °F 74% 30.00 in 9.0 mi NNW 24.2 mph 27.6 mph N/A   Scattered Clouds
2:15 PM 21.2 °F 4.5 °F 12.2 °F 68% 30.02 in 9.0 mi NNW 24.2 mph - N/A   Partly Cloudy
2:35 PM 21.2 °F 4.9 °F 12.2 °F 68% 30.03 in 5.0 mi NNW 23.0 mph 28.8 mph N/A   Clear
2:55 PM 19.4 °F 1.4 °F 12.2 °F 74% 30.04 in 3.0 mi NNW 26.5 mph - N/A   Clear
3:15 PM 19.4 °F 2.8 °F 12.2 °F 74% 30.06 in 5.0 mi NNW 21.9 mph - N/A   Clear
3:35 PM 19.4 °F 3.6 °F 12.2 °F 74% 30.07 in 10.0 mi NNW 19.6 mph 26.5 mph N/A   Clear
3:55 PM 19.4 °F 3.2 °F 10.4 °F 68% 30.09 in 8.0 mi NNW 20.7 mph 26.5 mph N/A   Clear
4:15 PM 17.6 °F 0.1 °F 10.4 °F 73% 30.10 in 9.0 mi NNW 23.0 mph 27.6 mph N/A   Clear
4:35 PM 17.6 °F 0.9 °F 8.6 °F 68% 30.11 in 9.0 mi NNW 20.7 mph 28.8 mph N/A   Clear
4:55 PM 15.8 °F -1.5 °F 8.6 °F 73% 30.12 in 7.0 mi NNW 20.7 mph 27.6 mph N/A   Clear
5:15 PM 15.8 °F -0.6 °F 8.6 °F 73% 30.14 in 10.0 mi NNW 18.4 mph - N/A   Clear
5:35 PM 14.0 °F -3.0 °F 6.8 °F 73% 30.15 in 10.0 mi NW 18.4 mph - N/A   Clear
5:55 PM 14.0 °F -3.9 °F 6.8 °F 73% 30.16 in 10.0 mi NNW 20.7 mph 26.5 mph N/A   Clear
6:15 PM 14.0 °F -4.7 °F 5.0 °F 67% 30.17 in 10.0 mi NNW 23.0 mph 27.6 mph N/A   Clear
6:35 PM 12.2 °F -4.3 °F 6.8 °F 79% 30.19 in 10.0 mi NW 16.1 mph - N/A   Clear
6:55 PM 12.2 °F -4.8 °F 5.0 °F 73% 30.19 in 10.0 mi NW 17.3 mph - N/A   Clear
7:15 PM 12.2 °F -5.3 °F 5.0 °F 73% 30.20 in 10.0 mi NW 18.4 mph - N/A   Clear
7:35 PM 12.2 °F -5.8 °F 5.0 °F 73% 30.21 in 10.0 mi NNW 19.6 mph 24.2 mph N/A   Clear
7:55 PM 12.2 °F -6.3 °F 3.2 °F 67% 30.21 in 10.0 mi NW 20.7 mph 27.6 mph N/A   Clear
8:15 PM 12.2 °F -5.3 °F 3.2 °F 67% 30.22 in 10.0 mi NW 18.4 mph 24.2 mph N/A   Clear
8:35 PM 10.4 °F -7.7 °F 3.2 °F 73% 30.22 in 10.0 mi NW 18.4 mph - N/A   Clear
8:55 PM 10.4 °F -6.6 °F 3.2 °F 73% 30.23 in 10.0 mi NW 16.1 mph - N/A   Clear
9:15 PM 8.6 °F -8.3 °F 3.2 °F 79% 30.23 in 10.0 mi NW 15.0 mph - N/A   Clear
9:35 PM 8.6 °F -6.3 °F 3.2 °F 79% 30.24 in 10.0 mi NW 11.5 mph - N/A   Clear
9:55 PM 8.6 °F -5.5 °F 1.4 °F 73% 30.24 in 10.0 mi WNW 10.4 mph - N/A   Clear
10:15 PM 8.6 °F -4.7 °F 1.4 °F 73% 30.24 in 10.0 mi WNW 9.2 mph - N/A   Clear
10:35 PM 6.8 °F -6.9 °F -0.4 °F 72% 30.24 in 10.0 mi WNW 9.2 mph - N/A   Clear
10:55 PM 6.8 °F -7.8 °F -0.4 °F 72% 30.24 in 10.0 mi WNW 10.4 mph - N/A   Clear
11:15 PM 6.8 °F -5.9 °F -0.4 °F 72% 30.24 in 10.0 mi WNW 8.1 mph - N/A   Clear
11:35 PM 5.0 °F -8.1 °F -2.2 °F 72% 30.24 in 10.0 mi West 8.1 mph - N/A   Clear
11:55 PM 3.2 °F -12.2 °F -4.0 °F 72% 30.24 in 10.0 mi West 10.4 mph - N/A   Clear